Flag for Colombia Weather past 2 weeks in Bucaramanga, Colombia

Now
75 °F

Partly sunny.


Feels Like: 77 °F
Forecast: 69 / 81 °F
Wind: 7 mph from Southeast

Location: Bucaramanga / Palonegro

Current Time: Sep 22, 2014 at 9:48:58 AM

Latest Report: Sep 22, 2014 at 9:00 AM


Visibility: N/A

Pressure: 30.10 "Hg

Humidity: 69%

Dew point: 64 °F

Location of BucaramangaLocation

Historic Weather in Bucaramanga — Graph

°F

Bucaramanga temperature yesterday

Maximum temperature yesterday: 77 °F (at 12:00 PM)
Minimum temperature yesterday: 66 °F (at 6:00 AM)
Average temperature yesterday: 72 °F

Past Weeks' High & Low Weather Summary

 TemperatureHumidityPressure
High84 °F (Sep 8, 2:00 PM)100% (Sep 12, 7:00 AM)30.13 "Hg (Sep 12, 7:00 AM)
Low54 °F (Sep 12, 8:00 AM)51% (Sep 8, 12:00 PM)29.85 "Hg (Sep 11, 4:00 PM)
Average72 °F83%29.99 "Hg
* Reported Sep 7 9:00 AM — Sep 22 9:00 AM, Bucaramanga, Weather by CustomWeather, © 2014

Note: Actual official high and low records may vary slightly from our data, if they occured in-between our weather recording intervals... More about our weather records

Advertising

Bucaramanga weather history for previous 24 hours

 ConditionsComfort  
Time TempWeatherWind HumidityBarometerVisibility
9:00 AM
Sep 22
75 °FPartly sunny.7 mph69%30.10 "HgN/A
8:00 AM70 °FPartly sunny.3 mph83%30.08 "HgN/A
7:00 AM66 °FBroken clouds.2 mph94%30.06 "HgN/A
6:00 AM66 °FBroken clouds.2 mph100%30.03 "HgN/A
12:00 AM68 °FPassing clouds.No wind94%30.05 "HgN/A
11:00 PM
Sep 21
68 °FPassing clouds.No wind94%30.05 "HgN/A
10:00 PM70 °FPassing clouds.5 mph94%30.06 "HgN/A
9:00 PM68 °FPassing clouds.6 mph94%30.05 "HgN/A
8:00 PM70 °FPassing clouds.7 mph94%30.03 "HgN/A
7:00 PM70 °FFog.6 mph100%29.99 "Hg5 mi
6:00 PM72 °FScattered showers. Passing clouds.5 mph83%29.97 "HgN/A
5:00 PM73 °FScattered showers. Scattered clouds.9 mph78%29.94 "HgN/A
4:00 PM75 °FThunderstorms. Scattered clouds.8 mph74%29.95 "HgN/A
3:00 PM77 °FScattered clouds.9 mph69%29.96 "HgN/A
2:00 PM77 °FScattered clouds.5 mph69%29.99 "HgN/A
1:00 PM75 °FScattered clouds.6 mph74%30.02 "HgN/A
12:00 PM77 °FScattered clouds.6 mph100%30.05 "HgN/A
11:00 AM75 °FPartly sunny.2 mph74%30.09 "HgN/A
10:00 AM73 °FPartly sunny.2 mph78%30.11 "HgN/A
9:00 AM70 °FPartly sunny.3 mph88%30.12 "HgN/A
Weather by CustomWeather, © 2014

See weather overviewHow to use our weather pages